Find Starlink 32457

NORAD ID: 61717 Int'l Des: 2024-196 Owner: SPXS Country: US Constellation: starlink operational
LEOCIRCULAR

Current View

Loading 3D Globe...

About Starlink 32457

Starlink 32457 (NORAD 61717) is a starlink constellation satellite (v2 mini) launched Oct 30, 2024 by SPXS of US. It operates in LEO, CIRCULAR orbit with a mass of 730.00 kg.

Upcoming Passes

Passes for default location (London). Set your location on the main map for personalized predictions.

Altitude History

Loading altitude history...

Two-Line Element Set

1 61717U 24196L 26235.44818110 -.00000419 00000-0 -12655-5 0 9999
2 61717 53.1597 44.9475 0001601 127.7307 232.3841 15.34391933102717
Epoch: Aug 23, 2026 • Age: 24 hours

Current Status

Altitude 467.0 km
Apogee / Perigee N/A
Velocity 7.63 km/s
Sub-Earth Point -17.18°S, 94.59°E
Launch Date Oct 30, 2024
Age 1.8 years
Type internet

Technical Details

Classification Payload
Mass 730.00 kg
Dry Mass 700.00 kg
Total Mass 730.00 kg
Length 0.30 m
Diameter 4.10 m
Span 29.00 m
Shape Box + pan
Manufacturer SPXS
Bus Type Starlink V2M
Phase Status In Orbit
Owner/State SPXS/US

Most Searched